CSB594 KCVG-KDEN

Flight info

Callsign CSB594
Flight time N/A
Altitude 36000
Route LOVEY8 HELIS MCI/N0459F380 J24 OATHE CLASH5
Aircraft B763/H-SDE3FGHIJ2J3J5M3RWXY/LB1D1

Departure

Time 2026-05-07 06:49
Airport Cincinnati Northern Kentucky International Airport (KCVG)

Arrival

Time N/A
Airport Denver International Airport (KDEN)
Time Latitude Longitude Altitude Speed Heading
2026-05-07 06:31 39.03181 -84.65233 889 ft 0 kts 298°
2026-05-07 06:39 39.03180 -84.65231 889 ft 1 kts 298°
2026-05-07 06:39 39.03173 -84.65215 890 ft 2 kts 298°
2026-05-07 06:40 39.03166 -84.65198 890 ft 2 kts 298°
2026-05-07 06:40 39.03159 -84.65180 891 ft 2 kts 298°
2026-05-07 06:40 39.03150 -84.65165 891 ft 2 kts 324°
2026-05-07 06:40 39.03137 -84.65157 891 ft 2 kts 347°
2026-05-07 06:41 39.03130 -84.65155 892 ft 1 kts
2026-05-07 06:41 39.03126 -84.65155 892 ft 0 kts 357°
2026-05-07 06:42 39.03133 -84.65155 891 ft 2 kts 357°
2026-05-07 06:43 39.03174 -84.65157 890 ft 8 kts 357°
2026-05-07 06:43 39.03250 -84.65159 889 ft 13 kts
2026-05-07 06:43 39.03356 -84.65159 887 ft 16 kts 359°
2026-05-07 06:43 39.03467 -84.65158 885 ft 15 kts
2026-05-07 06:44 39.03543 -84.65157 885 ft 8 kts 354°
2026-05-07 06:44 39.03573 -84.65206 884 ft 8 kts 272°
2026-05-07 06:44 39.03574 -84.65301 882 ft 14 kts 270°
2026-05-07 06:44 39.03575 -84.65458 878 ft 20 kts 270°
2026-05-07 06:45 39.03575 -84.65673 872 ft 26 kts 270°
2026-05-07 06:45 39.03575 -84.65926 862 ft 26 kts 270°
2026-05-07 06:45 39.03581 -84.66146 855 ft 21 kts 274°
2026-05-07 06:45 39.03589 -84.66309 851 ft 14 kts 272°
2026-05-07 06:46 39.03591 -84.66438 849 ft 14 kts 270°
2026-05-07 06:46 39.03591 -84.66550 848 ft 10 kts 270°
2026-05-07 06:46 39.03592 -84.66635 847 ft 7 kts 270°
2026-05-07 06:46 39.03590 -84.66705 847 ft 6 kts 257°
2026-05-07 06:47 39.03556 -84.66739 847 ft 6 kts 185°
2026-05-07 06:47 39.03508 -84.66739 846 ft 6 kts 179°
2026-05-07 06:47 39.03473 -84.66755 846 ft 5 kts 225°
2026-05-07 06:47 39.03465 -84.66805 846 ft 7 kts 268°
2026-05-07 06:48 39.03478 -84.66870 846 ft 6 kts 325°
2026-05-07 06:48 39.03598 -84.66874 847 ft 36 kts
2026-05-07 06:48 39.04048 -84.66872 854 ft 92 kts 360°
2026-05-07 06:48 39.04871 -84.66869 875 ft 140 kts 359°
2026-05-07 06:49 39.05975 -84.66863 1065 ft 169 kts 358°
2026-05-07 06:49 39.07131 -84.66870 1770 ft 168 kts 356°
2026-05-07 06:49 39.08281 -84.67007 2362 ft 173 kts 337°
2026-05-07 06:49 39.09369 -84.67889 2598 ft 199 kts 321°
2026-05-07 06:50 39.10500 -84.69089 3064 ft 218 kts 320°
2026-05-07 06:50 39.11671 -84.70307 3674 ft 231 kts 321°
2026-05-07 06:50 39.12862 -84.71537 4256 ft 244 kts 321°
2026-05-07 06:50 39.14194 -84.72920 5046 ft 252 kts 320°
2026-05-07 06:51 39.15420 -84.74458 5826 ft 258 kts 301°
2026-05-07 06:51 39.15946 -84.76562 6782 ft 258 kts 272°
2026-05-07 06:51 39.15597 -84.78800 7715 ft 261 kts 250°
2026-05-07 06:51 39.14901 -84.80953 8629 ft 262 kts 250°
2026-05-07 06:52 39.14202 -84.83085 9619 ft 260 kts 249°
2026-05-07 06:52 39.13477 -84.85223 10445 ft 265 kts 249°
2026-05-07 06:52 39.12712 -84.87445 11038 ft 278 kts 249°
2026-05-07 06:52 39.11907 -84.89751 11634 ft 291 kts 249°
2026-05-07 06:53 39.11053 -84.92186 12148 ft 306 kts 248°
2026-05-07 06:53 39.10177 -84.94659 13224 ft 304 kts 248°
2026-05-07 06:53 39.09324 -84.97070 14350 ft 297 kts 248°
2026-05-07 06:53 39.08471 -84.99482 15134 ft 300 kts 249°
2026-05-07 06:54 39.07880 -85.02031 15914 ft 300 kts 263°
2026-05-07 06:54 39.07912 -85.04785 15997 ft 315 kts 278°
2026-05-07 06:54 39.08631 -85.07439 15976 ft 313 kts 291°
2026-05-07 06:54 39.09635 -85.09864 15980 ft 305 kts 290°
2026-05-07 06:55 39.10589 -85.12306 15982 ft 309 kts 290°
2026-05-07 06:55 39.11549 -85.14793 15982 ft 312 kts 290°
2026-05-07 06:55 39.12500 -85.17272 15975 ft 309 kts 290°
2026-05-07 06:55 39.13441 -85.19750 15976 ft 306 kts 289°
2026-05-07 06:56 39.14373 -85.22219 15978 ft 308 kts 290°
2026-05-07 06:56 39.15311 -85.24712 15978 ft 309 kts 290°
2026-05-07 06:56 39.16244 -85.27193 15974 ft 309 kts 290°
2026-05-07 06:56 39.17178 -85.29687 15980 ft 308 kts 290°
2026-05-07 06:57 39.18120 -85.32196 15977 ft 311 kts 290°
2026-05-07 06:57 39.19058 -85.34706 15982 ft 312 kts 290°
2026-05-07 06:57 39.19990 -85.37199 15976 ft 309 kts 289°
2026-05-07 06:57 39.20923 -85.39690 15972 ft 308 kts 290°
2026-05-07 06:58 39.22101 -85.42042 15981 ft 319 kts 302°
2026-05-07 06:58 39.23516 -85.44241 15984 ft 320 kts 302°
2026-05-07 06:58 39.24932 -85.46480 15974 ft 320 kts 302°
2026-05-07 06:58 39.26335 -85.48687 15978 ft 317 kts 302°
2026-05-07 06:59 39.27722 -85.50868 15968 ft 317 kts 302°
2026-05-07 06:59 39.29141 -85.53112 15979 ft 323 kts 302°
2026-05-07 06:59 39.30579 -85.55379 16063 ft 324 kts 302°
2026-05-07 06:59 39.32003 -85.57626 16672 ft 326 kts 301°
2026-05-07 07:00 39.33419 -85.59856 17596 ft 323 kts 301°
2026-05-07 07:00 39.34858 -85.62137 18280 ft 330 kts 300°
2026-05-07 07:00 39.36283 -85.64390 19224 ft 327 kts 300°
2026-05-07 07:00 39.37753 -85.66721 19805 ft 336 kts 300°
2026-05-07 07:01 39.39240 -85.69074 20630 ft 336 kts 299°
2026-05-07 07:01 39.40738 -85.71453 21211 ft 343 kts 299°
2026-05-07 07:01 39.42239 -85.73830 21948 ft 344 kts 298°
2026-05-07 07:01 39.43744 -85.76224 22567 ft 349 kts 298°
2026-05-07 07:02 39.45269 -85.78647 23249 ft 350 kts 298°
2026-05-07 07:02 39.46822 -85.81116 23894 ft 353 kts 298°
2026-05-07 07:02 39.48363 -85.83562 24652 ft 353 kts 296°
2026-05-07 07:02 39.49903 -85.86018 25410 ft 354 kts 297°
2026-05-07 07:03 39.51434 -85.88486 26216 ft 350 kts 293°
2026-05-07 07:03 39.52593 -85.91138 26848 ft 337 kts 282°
2026-05-07 07:03 39.53218 -85.93984 27741 ft 322 kts 271°
2026-05-07 07:03 39.53457 -85.96824 28447 ft 319 kts 269°
2026-05-07 07:04 39.53657 -85.99671 29015 ft 322 kts 268°
2026-05-07 07:04 39.53825 -86.02547 29852 ft 317 kts 268°
2026-05-07 07:04 39.53976 -86.05351 30396 ft 318 kts 268°
2026-05-07 07:04 39.54115 -86.08216 30900 ft 321 kts 268°
2026-05-07 07:05 39.54246 -86.11110 31356 ft 324 kts 268°
2026-05-07 07:05 39.54372 -86.14017 31810 ft 326 kts 267°
2026-05-07 07:05 39.54494 -86.16964 32386 ft 325 kts 267°
2026-05-07 07:05 39.54613 -86.19817 33083 ft 320 kts 267°
2026-05-07 07:06 39.54729 -86.22686 33713 ft 317 kts 266°
2026-05-07 07:06 39.54837 -86.25520 34098 ft 318 kts 267°
2026-05-07 07:06 39.54947 -86.28367 34545 ft 318 kts 267°
2026-05-07 07:06 39.55053 -86.31213 35007 ft 318 kts 266°
2026-05-07 07:07 39.55161 -86.34070 35400 ft 318 kts 267°
2026-05-07 07:07 39.55265 -86.36910 35943 ft 317 kts 267°
2026-05-07 07:07 39.55474 -86.42579 36037 ft 313 kts 268°
2026-05-07 07:08 39.55677 -86.48210 36025 ft 315 kts 267°
2026-05-07 07:08 39.55878 -86.53901 36016 ft 317 kts 266°
2026-05-07 07:09 39.56077 -86.59591 36026 ft 315 kts 267°
2026-05-07 07:09 39.56269 -86.65196 36036 ft 316 kts 267°
2026-05-07 07:10 39.56461 -86.70885 36056 ft 318 kts 267°
2026-05-07 07:10 39.56654 -86.76599 36023 ft 317 kts 267°
2026-05-07 07:11 39.56840 -86.82288 36031 ft 319 kts 267°
2026-05-07 07:11 39.57028 -86.88036 36058 ft 318 kts 266°
2026-05-07 07:12 39.57212 -86.93771 36035 ft 320 kts 266°
2026-05-07 07:12 39.57392 -86.99522 36038 ft 320 kts 267°
2026-05-07 07:13 39.57570 -87.05259 36056 ft 319 kts 267°
2026-05-07 07:13 39.57747 -87.11074 36026 ft 320 kts 267°
2026-05-07 07:14 39.57920 -87.16801 36013 ft 319 kts 266°
2026-05-07 07:14 39.58088 -87.22557 36044 ft 322 kts 266°
2026-05-07 07:15 39.58256 -87.28348 36066 ft 322 kts 267°
2026-05-07 07:15 39.58427 -87.34106 36036 ft 322 kts 268°
2026-05-07 07:16 39.59029 -87.39934 36045 ft 327 kts 270°
2026-05-07 07:16 39.59665 -87.45723 36041 ft 326 kts 271°
2026-05-07 07:17 39.60305 -87.51539 36057 ft 328 kts 271°
2026-05-07 07:17 39.60950 -87.57407 36025 ft 328 kts 271°
2026-05-07 07:18 39.61593 -87.63271 36039 ft 330 kts 271°
2026-05-07 07:18 39.62237 -87.69177 36060 ft 330 kts 270°
2026-05-07 07:19 39.62878 -87.75088 36063 ft 328 kts 271°
2026-05-07 07:19 39.63510 -87.80944 36065 ft 331 kts 271°
2026-05-07 07:20 39.64149 -87.86877 36057 ft 330 kts 270°
2026-05-07 07:20 39.64784 -87.92826 36060 ft 333 kts 271°
2026-05-07 07:21 39.65418 -87.98753 36032 ft 330 kts 270°
2026-05-07 07:21 39.66037 -88.04593 36039 ft 331 kts 270°
2026-05-07 07:22 39.66653 -88.10468 36051 ft 336 kts 271°
2026-05-07 07:22 39.66391 -88.16393 36072 ft 326 kts 253°
2026-05-07 07:23 39.64086 -88.21484 36069 ft 337 kts 233°
2026-05-07 07:23 39.62255 -88.23462 36083 ft 350 kts 224°
2026-05-07 07:23 39.60038 -88.24949 36066 ft 366 kts 215°
2026-05-07 07:24 39.57526 -88.25856 36092 ft 387 kts 205°
2026-05-07 07:24 39.54738 -88.26152 36090 ft 412 kts 195°
2026-05-07 07:24 39.51834 -88.25786 36080 ft 432 kts 186°
2026-05-07 07:24 39.48868 -88.24727 36088 ft 453 kts 177°
2026-05-07 07:25 39.43087 -88.20531 36079 ft 497 kts 158°
2026-05-07 07:25 39.40454 -88.17443 36074 ft 521 kts 148°
2026-05-07 07:25 39.38096 -88.13760 36068 ft 539 kts 139°
2026-05-07 07:26 39.36098 -88.09561 36078 ft 556 kts 130°
2026-05-07 07:26 39.34511 -88.04926 36064 ft 573 kts 120°
2026-05-07 07:26 39.33287 -87.99989 36078 ft 588 kts 112°
2026-05-07 07:27 39.32148 -87.89355 36059 ft 600 kts 99°
2026-05-07 07:27 39.31544 -87.78697 36067 ft 597 kts 101°
2026-05-07 07:28 39.30806 -87.67949 36053 ft 599 kts 101°
2026-05-07 07:28 39.30031 -87.57256 36070 ft 602 kts 101°
2026-05-07 07:29 39.29248 -87.46604 36087 ft 588 kts 101°
2026-05-07 07:29 39.28859 -87.41395 35987 ft 576 kts 102°
2026-05-07 07:29 39.28477 -87.36340 35694 ft 570 kts 102°
2026-05-07 07:29 39.28099 -87.31338 35410 ft 566 kts 103°
2026-05-07 07:30 39.27713 -87.26340 35149 ft 566 kts 103°
2026-05-07 07:30 39.27316 -87.21223 34637 ft 578 kts 103°
2026-05-07 07:30 39.26912 -87.16040 34007 ft 588 kts 102°
2026-05-07 07:30 39.26509 -87.10800 33346 ft 591 kts 104°
2026-05-07 07:31 39.26095 -87.05504 32673 ft 592 kts 104°
2026-05-07 07:31 39.25682 -87.00264 31999 ft 593 kts 102°
2026-05-07 07:31 39.25261 -86.94935 31393 ft 591 kts 103°
2026-05-07 07:31 39.24854 -86.89750 31337 ft 575 kts 103°
2026-05-07 07:32 39.24450 -86.84650 31090 ft 566 kts 103°
2026-05-07 07:32 39.24035 -86.79592 30321 ft 571 kts 102°
2026-05-07 07:32 39.23634 -86.74561 30049 ft 561 kts 102°
2026-05-07 07:32 39.23227 -86.69616 29434 ft 562 kts 103°
2026-05-07 07:33 39.22821 -86.64612 29205 ft 552 kts 102°
2026-05-07 07:33 39.22417 -86.59700 28744 ft 547 kts 102°
2026-05-07 07:33 39.22017 -86.54861 28421 ft 541 kts 102°
2026-05-07 07:33 39.21623 -86.50095 28042 ft 535 kts 102°
2026-05-07 07:34 39.21225 -86.45399 27594 ft 531 kts 102°
2026-05-07 07:34 39.20836 -86.40692 27299 ft 523 kts 102°
2026-05-07 07:34 39.20441 -86.36045 26764 ft 522 kts 101°
2026-05-07 07:34 39.20048 -86.31375 26471 ft 513 kts 102°
2026-05-07 07:35 39.19654 -86.26743 26036 ft 508 kts 103°
2026-05-07 07:35 39.19274 -86.22287 25636 ft 502 kts 102°
2026-05-07 07:35 39.18890 -86.17865 25119 ft 500 kts 102°
2026-05-07 07:35 39.18508 -86.13418 24771 ft 493 kts 102°
2026-05-07 07:36 39.18134 -86.09086 24363 ft 488 kts 102°
2026-05-07 07:36 39.17755 -86.04758 23960 ft 484 kts 102°
2026-05-07 07:36 39.17384 -86.00479 23572 ft 479 kts 102°
2026-05-07 07:36 39.17012 -85.96256 23119 ft 475 kts 102°
2026-05-07 07:37 39.16637 -85.92027 22616 ft 473 kts 102°
2026-05-07 07:37 39.16267 -85.87853 22258 ft 467 kts 102°
2026-05-07 07:37 39.15900 -85.83701 21602 ft 465 kts 102°
2026-05-07 07:37 39.15532 -85.79575 21131 ft 458 kts 101°
2026-05-07 07:38 39.15163 -85.75496 20444 ft 457 kts 101°
2026-05-07 07:38 39.14807 -85.71507 20002 ft 449 kts 101°
2026-05-07 07:38 39.14444 -85.67492 19351 ft 446 kts 100°
2026-05-07 07:38 39.14089 -85.63570 18784 ft 443 kts 100°
2026-05-07 07:39 39.13728 -85.59624 18255 ft 437 kts 99°
2026-05-07 07:39 39.13382 -85.55822 17796 ft 430 kts 99°
2026-05-07 07:39 39.13030 -85.51977 17278 ft 425 kts 99°
2026-05-07 07:39 39.12685 -85.48225 16718 ft 421 kts 99°
2026-05-07 07:40 39.12342 -85.44521 16227 ft 415 kts 99°
2026-05-07 07:40 39.11999 -85.40839 15696 ft 410 kts 98°
2026-05-07 07:40 39.11660 -85.37174 15178 ft 405 kts 98°
2026-05-07 07:40 39.11333 -85.33684 14728 ft 399 kts 99°
2026-05-07 07:41 39.10996 -85.30063 14118 ft 396 kts 99°
2026-05-07 07:41 39.10664 -85.26547 13657 ft 389 kts 98°
2026-05-07 07:41 39.10339 -85.23095 13122 ft 385 kts 98°
2026-05-07 07:41 39.10017 -85.19689 12637 ft 379 kts 98°
2026-05-07 07:42 39.09699 -85.16326 12211 ft 371 kts 98°
2026-05-07 07:42 39.09386 -85.13052 11614 ft 370 kts 98°
2026-05-07 07:42 39.09073 -85.09772 11214 ft 361 kts 97°
2026-05-07 07:42 39.08768 -85.06574 10780 ft 361 kts 97°
2026-05-07 07:43 39.08464 -85.03409 10174 ft 360 kts 96°
2026-05-07 07:43 39.08164 -85.00301 9841 ft 342 kts 96°
2026-05-07 07:43 39.07735 -84.97366 9578 ft 324 kts 111°
2026-05-07 07:43 39.06646 -84.94939 9318 ft 305 kts 137°
2026-05-07 07:44 39.05119 -84.93159 8934 ft 295 kts 144°
2026-05-07 07:44 39.03531 -84.91499 8511 ft 290 kts 144°
2026-05-07 07:44 39.01967 -84.89880 7984 ft 289 kts 143°
2026-05-07 07:44 39.00404 -84.88287 7593 ft 282 kts 144°
2026-05-07 07:45 38.98858 -84.86734 7128 ft 280 kts 144°
2026-05-07 07:45 38.97310 -84.85195 6614 ft 278 kts 144°
2026-05-07 07:45 38.95776 -84.83698 6165 ft 276 kts 144°
2026-05-07 07:45 38.94249 -84.82233 5724 ft 273 kts 144°
2026-05-07 07:46 38.92726 -84.80785 5301 ft 270 kts 144°
2026-05-07 07:46 38.91222 -84.79375 4890 ft 267 kts 144°
2026-05-07 07:46 38.89726 -84.77983 4552 ft 261 kts 144°
2026-05-07 07:46 38.88244 -84.76616 4184 ft 257 kts 144°
2026-05-07 07:47 38.86792 -84.75290 3835 ft 252 kts 143°
2026-05-07 07:47 38.85622 -84.73711 3536 ft 242 kts 113°
2026-05-07 07:47 38.85281 -84.71718 3343 ft 224 kts 79°
2026-05-07 07:47 38.85829 -84.69959 3160 ft 210 kts 46°
2026-05-07 07:48 38.86988 -84.68896 2983 ft 198 kts 23°
2026-05-07 07:48 38.88191 -84.68138 2958 ft 186 kts 24°
2026-05-07 07:48 38.89312 -84.67419 2958 ft 175 kts 22°
2026-05-07 07:48 38.90465 -84.66981 2975 ft 170 kts 359°
2026-05-07 07:49 38.91662 -84.66981 3000 ft 175 kts 359°
2026-05-07 07:49 38.92891 -84.66954 2961 ft 176 kts 358°
2026-05-07 07:49 38.94148 -84.66937 2720 ft 179 kts 358°
2026-05-07 07:49 38.95400 -84.66925 2481 ft 181 kts 358°
2026-05-07 07:50 38.96671 -84.66916 2237 ft 182 kts 358°
2026-05-07 07:50 38.97902 -84.66908 2006 ft 168 kts 358°
2026-05-07 07:50 38.99007 -84.66900 1770 ft 151 kts 358°
2026-05-07 07:50 39.00020 -84.66894 1578 ft 137 kts 358°
2026-05-07 07:51 39.00964 -84.66890 1375 ft 135 kts 358°
2026-05-07 07:51 39.01905 -84.66886 1195 ft 137 kts 358°
2026-05-07 07:51 39.02872 -84.66878 1011 ft 139 kts 358°
2026-05-07 07:51 39.03860 -84.66873 853 ft 139 kts 358°
2026-05-07 07:52 39.04646 -84.66869 870 ft 75 kts 359°
2026-05-07 07:52 39.04943 -84.66859 877 ft 24 kts 13°
2026-05-07 07:52 39.05013 -84.66781 877 ft 12 kts 80°
2026-05-07 07:52 39.04965 -84.66728 876 ft 12 kts 179°
2026-05-07 07:53 39.04868 -84.66729 873 ft 15 kts 180°
2026-05-07 07:53 39.04746 -84.66730 871 ft 19 kts 180°
2026-05-07 07:53 39.04601 -84.66732 868 ft 22 kts 181°
2026-05-07 07:53 39.04435 -84.66730 864 ft 25 kts 180°
2026-05-07 07:54 39.04247 -84.66731 858 ft 28 kts 180°
2026-05-07 07:54 39.04039 -84.66733 854 ft 27 kts 180°
2026-05-07 07:54 39.03847 -84.66734 850 ft 24 kts 180°
2026-05-07 07:54 39.03720 -84.66734 848 ft 15 kts 180°
2026-05-07 07:55 39.03628 -84.66730 847 ft 10 kts 166°
2026-05-07 07:55 39.03592 -84.66660 847 ft 10 kts 93°
2026-05-07 07:55 39.03592 -84.66541 848 ft 16 kts 90°
2026-05-07 07:55 39.03590 -84.66363 850 ft 22 kts 91°
2026-05-07 07:56 39.03582 -84.66153 855 ft 23 kts 93°
2026-05-07 07:56 39.03575 -84.65949 861 ft 21 kts 90°
2026-05-07 07:56 39.03574 -84.65758 869 ft 20 kts 89°
2026-05-07 07:56 39.03575 -84.65573 874 ft 20 kts 89°
2026-05-07 07:57 39.03574 -84.65397 880 ft 19 kts 90°
2026-05-07 07:57 39.03573 -84.65226 884 ft 18 kts 89°
2026-05-07 07:57 39.03573 -84.65103 886 ft 13 kts 90°
2026-05-07 07:57 39.03573 -84.65025 887 ft 7 kts 90°
2026-05-07 07:58 39.03591 -84.64993 888 ft 3 kts
2026-05-07 07:58 39.03635 -84.64992 888 ft 8 kts
2026-05-07 07:58 39.03708 -84.64992 889 ft 9 kts 359°
2026-05-07 07:58 39.03750 -84.65031 888 ft 8 kts 281°
2026-05-07 07:59 39.03752 -84.65125 886 ft 11 kts 270°
2026-05-07 07:59 39.03775 -84.65157 885 ft 5 kts 358°
2026-05-07 07:59 39.03817 -84.65157 886 ft 6 kts 360°
2026-05-07 07:59 39.03830 -84.65157 886 ft 0 kts 360°